Hourly Data Report for February 04, 2019

All times are specified in Local Standard Time (LST). Add 1 hour to adjust for Daylight Saving Time where and when it is observed.

ABBOTSFORD A
BRITISH COLUMBIA
Current Station Operator: NAVCAN

49°01'31.000" N
122°21'36.000" W
59.10 m
1100032
YXX

Download Data

Hourly Data (February 2019)
Hourly Data Report for February 4, 2019
TIME Temp Definition
°C
Dew Point Definition
°C
Rel Hum Definition
%
Wind Dir Definition
10's deg

Wind Spd Definition
km/h
Visibility Definition
km
Stn Press Definition
kPa
Hmdx Definition


Wind Chill Definition


Weather Definition


00:00 -8.2 -17.6 47 5 41 LegendMM 99.45   -18 LegendNANA
01:00 -9.0 -14.6 64 5 47 LegendMM 99.51   -20 LegendNANA
02:00 -8.2 -16.4 52 6 44 LegendMM 99.61   -19 LegendNANA
03:00 -8.1 -16.2 53 6 49 LegendMM 99.63   -19 LegendNANA
04:00 -8.1 -17.9 46 6 37 LegendMM 99.69   -18 LegendNANA
05:00 -8.1 -18.6 43 5 41 LegendMM 99.72   -18 LegendNANA
06:00 -8.0 -18.9 42 5 44 LegendMM 99.78   -18 LegendNANA
07:00 -7.7 -18.0 44 5 37 LegendMM 99.83   -17 LegendNANA
08:00 -7.7 -18.6 42 5 39 LegendMM 99.91   -18 LegendNANA
09:00 -7.5 -18.5 41 5 34 LegendMM 99.98   -17 LegendNANA
10:00 -7.6 -18.9 40 6 36 LegendMM 100.04   -17 LegendNANA
11:00 -6.8 -18.4 40 6 33 LegendMM 100.12   -16 LegendNANA
12:00 -5.9 -17.5 40 6 27 LegendMM 100.13   -14 LegendNANA
13:00 -4.7 -17.1 38 6 33 LegendMM 100.06   -13 LegendNANA
14:00 -4.2 -16.6 38 5 31 LegendMM 100.01   -12 LegendNANA
15:00 -4.2 -16.6 38 6 31 LegendMM 100.03   -12 LegendNANA
16:00 -3.8 -16.1 38 6 30 LegendMM 100.06   -11 LegendNANA
17:00 -4.1 -16.1 39 6 28 LegendMM 100.10   -12 LegendNANA
18:00 -4.1 -16.0 39 5 23 LegendMM 100.10   -11 LegendNANA
19:00 -5.1 -16.5 41 6 22 LegendMM 100.13   -12 LegendNANA
20:00 -5.9 -17.8 39 6 23 LegendMM 100.14   -13 LegendNANA
21:00 -6.0 -17.7 39 8 26 LegendMM 100.17   -14 LegendNANA
22:00 -6.0 -17.9 39 7 25 LegendMM 100.17   -14 LegendNANA
23:00 -6.3 -17.8 40 6 20 LegendMM 100.20   -13 LegendNANA

Notes on Data Quality.

Legend

  • E = Estimated
  • M = Missing
  • NA = Not Available
Date modified: